View from above orbital plane
|
View from above satellite
|
Ground track
|
The orbit data is extracted from the following two-line orbital elements,
1 36508U 10013A 21057.77612978 .00000111 00000-0 26810-4 0 9993
2 36508 92.0211 169.1949 0008193 73.6030 286.6077 14.51907155577157
Epoch (UTC): | 26 February 2021 18:37:37 |
Eccentricity: | 0.0008193 |
inclination: | 92.0211° |
perigee height: | 713 km |
apogee height: | 725 km |
right ascension of ascending node: | 169.1949° |
argument of perigee: | 73.6030° |
revolutions per day: | 14.51907155 |
mean anomaly at epoch: | 286.6077° |
orbit number at epoch: | 57715 |
The dashed part of the orbit path shows where the satellite is in the earth's shadow,
|
|